#timestamp,LO_Frequency,Hit 
1503993615.3,286046995.9,N
1503993635.2,286046995.7,N
1503993655.0,286046995.2,N
1503993655.9,286046995.2,N
1503993675.7,286046997.1,N
1503993695.6,286046997.0,N
1503993715.4,286046999.6,N
1503993735.2,286046996.6,N
1503993755.1,286046997.4,N
1503993756.0,286046997.4,N
1503993775.8,286046997.8,N
1503993795.6,286046997.9,N
1503993815.5,286046997.1,N
1503993835.3,286046996.8,N
1503993855.1,286046996.7,N
1503993875.9,286046997.1,N
1503993895.7,286046996.8,N
1503993915.5,286046999.6,N
1503993935.4,286046995.0,P
1503993955.2,286046998.8,N
1503993975.0,286047001.2,N
1503993975.9,286047001.2,N
1503993995.8,286046998.2,N
1503994015.6,286046999.1,N
1503994035.4,286046996.6,N
1503994055.3,286046996.8,N
1503994075.1,286046997.1,N
1503994076.0,286046997.1,N
1503994095.8,286046996.8,N
1503994115.6,286046996.6,N
1503994135.5,286046997.3,N
1503994155.3,286046997.1,N
1503994175.1,286046997.1,N
1503994195.9,286046999.5,N
1503994215.7,286046999.6,N
1503994235.5,286046997.8,N
1503994255.4,286046995.3,N
1503994275.2,286046995.6,N
1503994295.0,286046996.3,N
1503994295.9,286046996.3,N
1503994315.8,286046993.3,P
1503994335.6,286046996.5,N
1503994355.4,286046996.8,N
1503994375.3,286046997.3,N
1503994395.1,286046997.4,N
1503994396.0,286046997.4,N
1503994415.8,286046997.8,N
1503994435.7,286046996.7,N
1503994455.5,286046996.6,N
1503994475.3,286046999.3,N
1503994495.1,286046996.6,N
1503994515.9,286047001.2,N
1503994535.7,286046999.4,N
1503994555.5,286046999.1,N
1503994575.4,286046996.7,N
1503994595.2,286046997.6,N
1503994615.0,286046997.4,N
1503994615.9,286046997.4,N
1503994635.8,286046996.7,N
1503994655.6,286046997.9,N
1503994675.4,286046997.8,N
1503994695.3,286046998.7,N
1503994715.1,286046998.8,N
1503994716.0,286046998.8,N
1503994735.8,286046998.9,N
1503994755.7,286046999.2,N
1503994775.5,286047001.0,N
1503994795.3,286047001.0,N
1503994815.1,286046999.2,N
1503994835.9,286046996.7,N
1503994855.7,286046995.5,N
1503994875.6,286046992.2,P
1503994895.4,286046996.0,N
1503994915.2,286046995.7,N
1503994935.0,286046996.2,N
1503994936.0,286046996.2,N
1503994955.8,286046993.3,P
1503994975.6,286046998.2,N
1503994995.5,286046998.5,N
1503995015.3,286046998.3,N
1503995035.1,286046999.1,N
1503995055.2,286046996.6,N
1503995075.0,286046997.7,N
1503995075.9,286046997.7,N
1503995095.7,286046995.5,N
1503995115.6,286046993.7,P
1503995135.7,286046994.9,P
1503995155.5,286046996.9,N
1503995175.4,286046999.5,N
1503995195.2,286046996.7,N
1503995215.0,286046996.8,N
1503995215.9,286046996.8,N
1503995235.8,286046997.0,N
1503995255.6,286046995.8,N
1503995275.4,286046994.6,P
1503995295.3,286046997.6,N
1503995315.1,286046999.1,N
1503995335.8,286046999.4,N
1503995355.7,286046996.9,N
1503995375.5,286046999.2,N
1503995395.3,286046995.5,N
1503995415.2,286046998.0,N
1503995435.9,286046992.0,P
1503995455.7,286046991.8,P
1503995475.6,286046994.8,N
1503995495.4,286046991.7,P
1503995515.2,286046998.3,N
1503995535.1,286047002.1,N
1503995536.0,286047002.1,N
1503995555.8,286047001.0,N
1503995575.6,286047001.1,N
1503995595.5,286047000.8,N
1503995615.3,286046998.9,N
1503995635.1,286047002.7,N
1503995655.9,286047000.4,N
1503995675.7,286047001.0,N
1503995695.5,286046999.3,N
1503995715.4,286047001.9,N
1503995735.2,286047001.8,N
1503995755.0,286047002.7,N
1503995755.9,286047002.7,N
1503995775.8,286047000.3,N
1503995795.6,286047001.0,N
1503995815.4,286046999.6,N
1503995835.3,286046993.3,N
1503995855.1,286046996.2,N
1503995856.0,286046996.2,N
1503995875.8,286046992.9,N
1503995895.6,286046994.8,N
1503995915.5,286046996.4,N
1503995935.3,286046995.8,N
1503995955.1,286046991.9,N
1503995975.9,286046992.6,N
1503995995.7,286046991.8,N
1503996015.5,286046994.0,N
1503996035.4,286046994.5,N
1503996055.2,286046991.9,N
1503996075.0,286046994.3,N
1503996075.9,286046994.3,N
1503996095.8,286046994.2,N
1503996115.6,286046992.3,N
1503996135.4,286046993.2,N
1503996155.3,286046991.5,N
1503996175.1,286046990.4,N
1503996176.0,286046990.4,N
1503996195.8,286046992.6,N
1503996215.7,286046990.6,N
1503996235.5,286046992.1,N
1503996255.3,286046992.7,N
1503996275.1,286046994.4,N
1503996295.9,286046994.8,N
1503996315.7,286046991.0,P
1503996335.6,286046997.5,N
1503996355.4,286046999.6,N
1503996375.2,286046999.1,N
1503996395.0,286046998.0,N
1503996395.9,286046998.0,N
1503996415.8,286046998.4,N
1503996435.6,286047000.0,N
1503996455.4,286047000.4,N
1503996475.3,286046994.9,N
1503996495.1,286046997.8,N
1503996515.8,286046996.2,N
1503996535.7,286046996.2,N
1503996555.5,286046994.6,N
1503996575.3,286046993.8,N
1503996595.2,286046997.7,N
1503996615.9,286046996.5,N
1503996635.7,286046998.7,N
1503996655.5,286046998.7,N
1503996675.4,286046995.7,N
1503996695.2,286046997.8,N
1503996715.0,286046996.3,N
1503996715.9,286046996.3,N
1503996735.8,286046995.3,N
1503996755.6,286046991.7,P
1503996775.4,286046997.8,N
1503996795.3,286046999.0,N
1503996815.1,286046999.1,N
1503996835.8,286047000.6,N
1503996855.7,286046998.2,N
1503996875.5,286046998.2,N
1503996895.3,286046997.8,N
1503996915.2,286046996.0,N
1503996935.9,286046993.8,N
1503996955.7,286046997.4,N
1503996975.6,286046994.1,N
1503996995.4,286046996.1,N
1503997015.2,286046995.6,N
1503997035.0,286046995.9,N
1503997035.9,286046995.9,N
1503997055.8,286046995.6,N
1503997075.6,286046995.7,N
1503997095.4,286046994.7,N
1503997115.3,286046991.8,P
1503997135.1,286046997.8,N
1503997155.8,286046996.7,N
1503997175.7,286046998.5,N
1503997195.5,286046999.0,N
